Time,TemperatureF,DewpointF,PressureIn,WindDirection,WindDirectionDegrees,WindSpeedMPH,WindSpeedGustMPH,Humidity,HourlyPrecipIn,Conditions,Clouds,dailyrainin,SoftwareType,DateUTC
2014-08-21 00:04:00,70.5,65.4,29.88,South,180,2.2,-999.0,84,-99.99,,,0.00,Acu-Link.com,2014-08-21 04:04:00,
2014-08-21 00:19:00,69.6,65.2,29.87,South,180,0.0,-999.0,86,-99.99,,,0.00,Acu-Link.com,2014-08-21 04:19:00,
2014-08-21 00:34:00,69.1,65.7,29.88,SSE,157,0.0,-999.0,89,-99.99,,,0.00,Acu-Link.com,2014-08-21 04:34:00,
2014-08-21 00:50:00,68.4,65.7,29.87,SSW,202,0.0,-999.0,91,-99.99,,,0.00,Acu-Link.com,2014-08-21 04:50:00,
2014-08-21 01:05:00,68.4,66.6,29.87,SSE,157,2.2,-999.0,94,-99.99,,,0.00,Acu-Link.com,2014-08-21 05:05:00,
2014-08-21 01:20:00,68.2,66.7,29.87,SSW,202,2.2,-999.0,95,-99.99,,,0.00,Acu-Link.com,2014-08-21 05:20:00,
2014-08-21 01:35:00,67.8,66.3,29.88,South,180,2.7,-999.0,95,-99.99,,,0.00,Acu-Link.com,2014-08-21 05:35:00,
2014-08-21 01:51:00,67.8,66.3,29.88,South,180,1.7,-999.0,95,-99.99,,,0.00,Acu-Link.com,2014-08-21 05:51:00,
2014-08-21 02:06:00,67.6,66.1,29.88,South,180,2.7,-999.0,95,-99.99,,,0.00,Acu-Link.com,2014-08-21 06:06:00,
2014-08-21 02:21:00,67.5,66.3,29.87,South,180,2.2,-999.0,96,-99.99,,,0.00,Acu-Link.com,2014-08-21 06:21:00,
2014-08-21 02:37:00,68.0,66.8,29.87,South,180,3.2,-999.0,96,-99.99,,,0.00,Acu-Link.com,2014-08-21 06:37:00,
2014-08-21 02:52:00,68.0,66.8,29.87,SSE,157,3.2,-999.0,96,-99.99,,,0.00,Acu-Link.com,2014-08-21 06:52:00,
2014-08-21 03:07:00,67.5,66.3,29.86,SSE,157,3.2,-999.0,96,-99.99,,,0.00,Acu-Link.com,2014-08-21 07:07:00,
2014-08-21 03:22:00,67.5,66.3,29.87,South,180,1.7,-999.0,96,-99.99,,,0.00,Acu-Link.com,2014-08-21 07:22:00,
2014-08-21 03:37:00,67.5,66.3,29.88,South,180,2.7,-999.0,96,-99.99,,,0.00,Acu-Link.com,2014-08-21 07:37:00,
2014-08-21 03:53:00,67.1,65.9,29.87,South,180,2.7,-999.0,96,-99.99,,,0.00,Acu-Link.com,2014-08-21 07:53:00,
2014-08-21 04:08:00,66.9,66.0,29.87,SSW,202,3.2,-999.0,97,-99.99,,,0.00,Acu-Link.com,2014-08-21 08:08:00,
2014-08-21 04:23:00,67.5,66.6,29.88,SSE,157,3.7,-999.0,97,-99.99,,,0.00,Acu-Link.com,2014-08-21 08:23:00,
2014-08-21 04:38:00,67.6,66.7,29.88,South,180,2.7,-999.0,97,-99.99,,,0.00,Acu-Link.com,2014-08-21 08:38:00,
2014-08-21 04:53:00,67.5,66.6,29.88,SSE,157,2.7,-999.0,97,-99.99,,,0.00,Acu-Link.com,2014-08-21 08:53:00,
2014-08-21 05:09:00,67.3,66.4,29.87,South,180,2.7,-999.0,97,-99.99,,,0.00,Acu-Link.com,2014-08-21 09:09:00,
2014-08-21 05:24:00,67.5,66.6,29.87,South,180,3.2,-999.0,97,-99.99,,,0.00,Acu-Link.com,2014-08-21 09:24:00,
2014-08-21 05:39:00,67.5,66.6,29.88,South,180,0.0,-999.0,97,-99.99,,,0.00,Acu-Link.com,2014-08-21 09:39:00,
2014-08-21 05:54:00,67.6,66.7,29.87,South,180,0.0,-999.0,97,-99.99,,,0.00,Acu-Link.com,2014-08-21 09:54:00,
2014-08-21 06:10:00,67.1,66.2,29.88,South,180,0.0,-999.0,97,-99.99,,,0.00,Acu-Link.com,2014-08-21 10:10:00,
2014-08-21 06:25:00,67.1,66.2,29.88,SE,135,0.0,-999.0,97,-99.99,,,0.00,Acu-Link.com,2014-08-21 10:25:00,
2014-08-21 06:40:00,67.1,66.2,29.87,SE,135,0.0,-999.0,97,-99.99,,,0.00,Acu-Link.com,2014-08-21 10:40:00,
2014-08-21 06:56:00,67.6,67.0,29.89,South,180,4.7,-999.0,98,-99.99,,,0.00,Acu-Link.com,2014-08-21 10:56:00,
2014-08-21 07:11:00,68.5,67.9,29.93,SSW,202,3.7,-999.0,98,-99.99,,,0.04,Acu-Link.com,2014-08-21 11:11:00,
2014-08-21 07:26:00,69.3,68.4,29.91,SSW,202,4.7,-999.0,97,-99.99,,,0.07,Acu-Link.com,2014-08-21 11:26:00,
2014-08-21 07:41:00,69.1,67.9,29.89,South,180,5.3,-999.0,96,-99.99,,,0.08,Acu-Link.com,2014-08-21 11:41:00,
2014-08-21 07:57:00,69.1,67.9,29.89,ESE,112,4.2,-999.0,96,-99.99,,,0.11,Acu-Link.com,2014-08-21 11:57:00,
2014-08-21 08:12:00,68.9,67.4,29.89,SW,225,1.7,-999.0,95,-99.99,,,0.12,Acu-Link.com,2014-08-21 12:12:00,
2014-08-21 08:27:00,69.1,67.6,29.89,South,180,2.7,-999.0,95,-99.99,,,0.12,Acu-Link.com,2014-08-21 12:27:00,
2014-08-21 08:42:00,68.9,67.7,29.88,South,180,4.7,-999.0,96,-99.99,,,0.12,Acu-Link.com,2014-08-21 12:42:00,
2014-08-21 08:57:00,70.3,68.5,29.89,South,180,3.7,-999.0,94,-99.99,,,0.12,Acu-Link.com,2014-08-21 12:57:00,
2014-08-21 09:12:00,70.7,68.6,29.88,SSE,157,9.4,-999.0,93,-99.99,,,0.12,Acu-Link.com,2014-08-21 13:12:00,
2014-08-21 09:27:00,71.4,69.3,29.88,South,180,6.8,-999.0,93,-99.99,,,0.12,Acu-Link.com,2014-08-21 13:27:00,
2014-08-21 09:42:00,71.4,69.3,29.89,South,180,6.8,-999.0,93,-99.99,,,0.12,Acu-Link.com,2014-08-21 13:42:00,
2014-08-21 09:58:00,71.4,69.3,29.89,SSW,202,3.2,-999.0,93,-99.99,,,0.12,Acu-Link.com,2014-08-21 13:58:00,
2014-08-21 10:13:00,71.4,69.6,29.90,South,180,3.7,-999.0,94,-99.99,,,0.12,Acu-Link.com,2014-08-21 14:13:00,
2014-08-21 10:28:00,71.4,69.9,29.91,SSW,202,4.2,-999.0,95,-99.99,,,0.12,Acu-Link.com,2014-08-21 14:28:00,
2014-08-21 10:44:00,71.2,69.7,29.91,SW,225,3.2,-999.0,95,-99.99,,,0.14,Acu-Link.com,2014-08-21 14:44:00,
2014-08-21 10:59:00,71.2,70.0,29.91,South,180,4.7,-999.0,96,-99.99,,,0.17,Acu-Link.com,2014-08-21 14:59:00,
2014-08-21 11:14:00,71.1,70.2,29.91,SSW,202,3.7,-999.0,97,-99.99,,,0.20,Acu-Link.com,2014-08-21 15:14:00,
2014-08-21 11:29:00,71.1,70.2,29.91,South,180,3.7,-999.0,97,-99.99,,,0.22,Acu-Link.com,2014-08-21 15:29:00,
2014-08-21 11:45:00,71.1,70.2,29.92,SSE,157,2.7,-999.0,97,-99.99,,,0.27,Acu-Link.com,2014-08-21 15:45:00,
2014-08-21 12:00:00,71.1,70.2,29.94,NW,315,2.2,-999.0,97,-99.99,,,0.30,Acu-Link.com,2014-08-21 16:00:00,
2014-08-21 12:15:00,71.1,70.2,29.95,South,180,3.7,-999.0,97,-99.99,,,0.35,Acu-Link.com,2014-08-21 16:15:00,
2014-08-21 12:30:00,70.5,69.6,29.94,SSE,157,4.7,-999.0,97,-99.99,,,0.39,Acu-Link.com,2014-08-21 16:30:00,
2014-08-21 12:45:00,70.3,69.4,29.94,ESE,112,1.1,-999.0,97,-99.99,,,0.48,Acu-Link.com,2014-08-21 16:45:00,
2014-08-21 13:01:00,70.3,69.4,29.95,West,270,2.2,-999.0,97,-99.99,,,0.54,Acu-Link.com,2014-08-21 17:01:00,
2014-08-21 13:16:00,70.0,69.1,29.94,South,180,4.7,-999.0,97,-99.99,,,0.60,Acu-Link.com,2014-08-21 17:16:00,
2014-08-21 13:31:00,69.8,68.9,29.94,SSE,157,3.2,-999.0,97,-99.99,,,0.64,Acu-Link.com,2014-08-21 17:31:00,
2014-08-21 13:47:00,69.8,68.9,29.93,ESE,112,0.0,-999.0,97,-99.99,,,0.74,Acu-Link.com,2014-08-21 17:47:00,
2014-08-21 14:02:00,69.8,68.9,29.93,SSE,157,3.2,-999.0,97,-99.99,,,0.77,Acu-Link.com,2014-08-21 18:02:00,
2014-08-21 14:17:00,69.3,68.4,29.92,South,180,6.3,-999.0,97,-99.99,,,0.80,Acu-Link.com,2014-08-21 18:17:00,
2014-08-21 14:32:00,69.6,68.4,29.91,SSE,157,9.9,-999.0,96,-99.99,,,0.93,Acu-Link.com,2014-08-21 18:32:00,
2014-08-21 14:47:00,70.9,69.1,29.90,South,180,7.3,-999.0,94,-99.99,,,0.93,Acu-Link.com,2014-08-21 18:47:00,
2014-08-21 15:03:00,71.6,69.5,29.90,South,180,8.3,-999.0,93,-99.99,,,0.93,Acu-Link.com,2014-08-21 19:03:00,
2014-08-21 15:18:00,71.4,69.9,29.90,South,180,4.2,-999.0,95,-99.99,,,0.93,Acu-Link.com,2014-08-21 19:18:00,
2014-08-21 15:33:00,72.9,70.4,29.89,SSE,157,2.7,-999.0,92,-99.99,,,0.96,Acu-Link.com,2014-08-21 19:33:00,
2014-08-21 15:48:00,72.9,70.4,29.88,South,180,2.7,-999.0,92,-99.99,,,0.96,Acu-Link.com,2014-08-21 19:48:00,
2014-08-21 16:04:00,73.0,70.2,29.87,South,180,5.8,-999.0,91,-99.99,,,0.96,Acu-Link.com,2014-08-21 20:04:00,
2014-08-21 16:19:00,74.7,71.6,29.85,SSW,202,8.3,-999.0,90,-99.99,,,0.96,Acu-Link.com,2014-08-21 20:19:00,
2014-08-21 16:34:00,75.6,71.8,29.84,SSE,157,10.9,-999.0,88,-99.99,,,0.96,Acu-Link.com,2014-08-21 20:34:00,
2014-08-21 16:49:00,76.3,72.5,29.83,SSE,157,6.8,-999.0,88,-99.99,,,0.96,Acu-Link.com,2014-08-21 20:49:00,
2014-08-21 17:04:00,76.8,72.6,29.83,South,180,7.8,-999.0,87,-99.99,,,0.96,Acu-Link.com,2014-08-21 21:04:00,
2014-08-21 17:20:00,77.0,72.8,29.82,South,180,6.8,-999.0,87,-99.99,,,0.96,Acu-Link.com,2014-08-21 21:20:00,
2014-08-21 17:35:00,77.4,73.2,29.82,South,180,5.3,-999.0,87,-99.99,,,0.96,Acu-Link.com,2014-08-21 21:35:00,
2014-08-21 17:50:00,77.0,73.2,29.82,South,180,4.7,-999.0,88,-99.99,,,0.96,Acu-Link.com,2014-08-21 21:50:00,
2014-08-21 18:21:00,77.7,73.2,29.82,South,180,7.8,-999.0,86,-99.99,,,0.96,Acu-Link.com,2014-08-21 22:21:00,
2014-08-21 18:36:00,77.7,73.5,29.82,SSE,157,5.3,-999.0,87,-99.99,,,0.96,Acu-Link.com,2014-08-21 22:36:00,
2014-08-21 18:51:00,77.5,73.7,29.82,South,180,4.2,-999.0,88,-99.99,,,0.96,Acu-Link.com,2014-08-21 22:51:00,
2014-08-21 19:06:00,77.0,73.5,29.82,South,180,4.7,-999.0,89,-99.99,,,0.96,Acu-Link.com,2014-08-21 23:06:00,
2014-08-21 19:22:00,77.4,73.9,29.82,SSW,202,2.7,-999.0,89,-99.99,,,0.96,Acu-Link.com,2014-08-21 23:22:00,
2014-08-21 19:37:00,77.0,73.5,29.82,SSE,157,3.2,-999.0,89,-99.99,,,0.96,Acu-Link.com,2014-08-21 23:37:00,
2014-08-21 19:52:00,76.3,73.1,29.82,ESE,112,2.2,-999.0,90,-99.99,,,0.96,Acu-Link.com,2014-08-21 23:52:00,
2014-08-21 20:08:00,76.5,73.3,29.83,SSE,157,1.1,-999.0,90,-99.99,,,0.96,Acu-Link.com,2014-08-22 00:08:00,
2014-08-21 20:23:00,75.2,72.7,29.83,SE,135,0.0,-999.0,92,-99.99,,,0.96,Acu-Link.com,2014-08-22 00:23:00,
2014-08-21 20:38:00,73.4,71.9,29.83,SSE,157,2.2,-999.0,95,-99.99,,,0.96,Acu-Link.com,2014-08-22 00:38:00,
2014-08-21 20:53:00,72.7,71.5,29.84,SSE,157,1.1,-999.0,96,-99.99,,,0.96,Acu-Link.com,2014-08-22 00:53:00,
2014-08-21 21:09:00,72.7,71.5,29.83,South,180,2.7,-999.0,96,-99.99,,,0.96,Acu-Link.com,2014-08-22 01:09:00,
2014-08-21 21:24:00,72.3,71.1,29.84,SSE,157,2.2,-999.0,96,-99.99,,,0.96,Acu-Link.com,2014-08-22 01:24:00,
2014-08-21 21:39:00,72.5,71.3,29.84,South,180,1.7,-999.0,96,-99.99,,,0.96,Acu-Link.com,2014-08-22 01:39:00,
2014-08-21 21:54:00,72.7,71.5,29.84,SSE,157,2.7,-999.0,96,-99.99,,,0.96,Acu-Link.com,2014-08-22 01:54:00,